WA8KWD Weather Reports


Display with metric or nautical units.
time (UTC)temp
F
wind
direction
speed
MPH
gust
MPH
rain 1hr
in
rain 24hr
in
rain mn
in
humidity
%
barometer
mb
20260504034529 50 191 0.0 2.0 0.00 0.00 0.00 61 1015.0
20260504033025 50 189 0.0 1.0 0.00 0.00 0.00 60 1015.1
20260504031520 50 203 0.0 0.0 0.00 0.00 0.00 62 1015.2
20260504030027 50 221 0.0 0.0 0.00 0.00 0.00 60 1015.2
20260504024517 50 217 0.0 3.0 0.00 0.00 0.00 60 1015.4
20260504023013 50 240 2.0 5.0 0.00 0.00 0.00 59 1015.7
20260504021509 50 245 3.0 9.0 0.00 0.00 0.00 58 1015.6
20260504020007 49 235 4.0 7.0 0.00 0.00 0.00 57 1015.6
20260504014619 50 198 0.0 0.0 0.00 0.00 0.00 54 1015.0
20260504013103 50 160 0.0 1.0 0.00 0.00 0.00 54 1014.9
20260504011559 50 177 0.0 1.0 0.00 0.00 0.00 53 1015.0
20260504010056 51 192 0.0 0.0 0.00 0.00 0.00 52 1015.0
20260504004547 52 198 0.0 0.0 0.00 0.00 0.00 52 1015.1
20260504003049 52 197 0.0 0.0 0.00 0.00 0.00 51 1015.0
20260504001537 53 208 0.0 1.0 0.00 0.00 0.00 50 1015.0
20260504000032 54 234 0.0 3.0 0.00 0.00 0.00 47 1015.1
20260503234542 55 224 1.0 6.0 0.00 0.00 0.00 47 1015.3
20260503233023 55 233 1.0 6.0 0.00 0.00 0.00 47 1015.3
20260503231520 56 215 0.0 6.0 0.00 0.00 0.00 47 1015.3
20260503230017 56 226 0.0 8.0 0.00 0.00 0.00 46 1015.3
20260503224513 56 238 3.0 8.0 0.00 0.00 0.00 46 1015.4
20260503223005 56 212 4.0 10.0 0.00 0.00 0.00 45 1015.5
20260503221600 57 172 3.0 6.0 0.00 0.00 0.00 46 1015.6
20260503220057 56 206 2.0 7.0 0.00 0.00 0.00 46 1015.7
20260503214551 57 218 4.0 10.0 0.00 0.00 0.00 44 1015.7
20260503213055 58 210 4.0 8.0 0.00 0.00 0.00 42 1015.7
20260503211542 58 246 3.0 11.0 0.00 0.00 0.00 43 1015.7
20260503210039 58 252 4.0 12.0 0.00 0.00 0.00 46 1015.7
20260503204534 58 243 3.0 11.0 0.00 0.00 0.00 43 1015.6
20260503203031 58 228 4.0 10.0 0.00 0.00 0.00 42 1015.8
20260503201526 58 210 1.0 10.0 0.00 0.00 0.00 44 1016.1
20260503200021 58 194 4.0 9.0 0.00 0.00 0.00 41 1016.3
20260503194516 58 251 5.0 9.0 0.00 0.00 0.00 42 1016.6
20260503193013 58 207 5.0 12.0 0.00 0.00 0.00 41 1016.9
20260503191513 59 249 4.0 10.0 0.00 0.00 0.00 40 1017.1
20260503190003 59 223 4.0 11.0 0.00 0.00 0.00 39 1017.4
20260503184610 58 259 4.0 6.0 0.00 0.00 0.00 45 1017.5
20260503183107 58 230 4.0 8.0 0.00 0.00 0.00 43 1017.7
20260503181603 58 229 5.0 11.0 0.00 0.00 0.00 43 1017.8
20260503180046 56 243 1.0 5.0 0.00 0.00 0.00 50 1018.0
20260503174541 57 194 2.0 13.0 0.00 0.00 0.00 46 1018.0
20260503173036 56 243 2.0 7.0 0.00 0.00 0.00 48 1018.3
20260503171532 57 217 3.0 8.0 0.00 0.00 0.00 49 1018.6
20260503081622 35 213 0.0 0.0 0.00 0.00 0.00 1 1019.4
20260503080106 35 214 0.0 0.0 0.00 0.00 0.00 1 1019.4
20260503071535 35 200 0.0 0.0 0.00 0.01 0.00 1 1019.3
20260503054513 37 309 0.0 0.0 0.00 0.01 0.00 6 1019.3
20260503053004 37 309 0.0 0.0 0.00 0.01 0.00 15 1019.5
20260503051600 37 317 0.0 0.0 0.00 0.01 0.00 16 1019.5
20260503050056 37 318 0.0 0.0 0.00 0.01 0.00 22 1019.5
20260503044604 37 318 0.0 0.0 0.00 0.01 0.00 24 1019.7
20260503043054 37 318 0.0 0.0 0.00 0.01 0.00 35 1019.6
20260503041551 37 318 0.0 0.0 0.00 0.01 0.00 32 1019.7
20260503040049 37 318 0.0 0.0 0.00 0.01 0.00 35 1019.8